Regional Weather Roundup
Issued by NWS Charleston, SC

Current Version | Previous Version | Text Only | Print | Product List | Glossary Off
Versions: 1 2 3 4 5 6 7 8 9 10 11 12 13 14 15 16 17 18 19 20 21 22 23 24 25 26 27 28 29 30 31 32 33 34 35 36 37 38 39 40 41 42 43 44 45 46 47 48 49 50

000
ASUS42 KCHS 232225
RWRCHS

REGIONAL WEATHER ROUNDUP
NATIONAL WEATHER SERVICE CHARLESTON SC
500 PM EST SUN NOV 23 2014

NOTE: "FAIR" INDICATES FEW OR NO CLOUDS BELOW 12,000 FEET WITH NO
SIGNIFICANT WEATHER AND/OR OBSTRUCTIONS TO VISIBILITY.

NOT ALL STATIONS ARE QUALITY CONTROLLED BY THE NATIONAL
WEATHER SERVICE. USE DATA WITH CAUTION...ESPECIALLY
DEWPOINT OBSERVATIONS.

SCZ027-030-031-034>040-042>050-232300-
...SOUTHEAST SOUTH CAROLINA...

CITY           SKY/WX    TMP DP  RH WIND       PRES   REMARKS
N CHARLESTON   LGT RAIN  67  65  93 E9        29.87F FOG
WATERFRONT PRK   N/A     64 N/A N/A E17         N/A
MOUNT PLEASANT CLOUDY    68  68 100 SE9G18    29.88F
JOHNS ISLAND   PTCLDY    66  66 100 CALM      29.87F FOG
PINOPOLIS        N/A     66  64  94 SE7G20    29.83S
MONCKS CORNER  LGT RAIN  68  68 100 SE9G18    29.87F
SUMMERVILLE    CLOUDY    66  66 100 E7        29.86F
BEAUFORT MCAS  CLOUDY    67  66  97 SE5       29.85F
BEAUFORT ARPT  CLOUDY    68  68 100 SE6       29.84F
HILTON HEAD IS CLOUDY    68  68 100 E3        29.85F FOG
WALTERBORO     CLOUDY    68 N/A N/A E9        29.85F
ALLENDALE      TSTM      68  66  94 CALM      29.82F

...SOUTHERN MIDLANDS AND PEE DEE...

CITY           SKY/WX    TMP DP  RH WIND       PRES   REMARKS
GEORGETOWN     NOT AVBL
KINGSTREE      NOT AVBL
ORANGEBURG     CLOUDY    67  63  87 SE13G20   29.85F
BARNWELL       CLOUDY    66  66 100 SE13      29.83F
AIKEN          RAIN      64  64 100 SE10G18   29.83F
MANNING        NOT AVBL
COLUMBIA       LGT RAIN  64  62  93 SE13      29.84F FOG
SUMTER         LGT RAIN  64  64 100 SE14G22   29.85F FOG
FLORENCE       LGT RAIN  65  62  90 SE16      29.90F FOG
MYRTLE BEACH   LGT RAIN  64  61  88 SE14      29.93F FOG
N MYRTLE BEACH RAIN      64  62  93 E7        29.94F FOG

$$

GAZ063-065-086>088-099>101-113>116-118-119-134>141-150-232300-
...SOUTHEAST GEORGIA...

CITY           SKY/WX    TMP DP  RH WIND       PRES   REMARKS
SAVANNAH ARPT  LGT RAIN  71  68  90 SE8       29.84S VSB 1
HUNTER AAF     CLOUDY    68  68 100 SE8       29.81F
FORT STEWART   LGT RAIN  70  68  94 SE7       29.81S FOG
STATESBORO     NOT AVBL
SYLVANIA       CLOUDY    67  67  98 SE6       29.82F THUNDER FOG
CLAXTON        TSTM     N/A N/A N/A S3        29.82S

...CSRA...CENTRAL AND FAR SOUTHEAST GEORGIA...

CITY           SKY/WX    TMP DP  RH WIND       PRES   REMARKS
THOMSON        CLOUDY    65  65 100 E7        29.81F
AUGUSTA-BUSH   TSTM      65  64  97 SE10G17   29.79F FOG
AUGUSTA-DANIEL TSTM      65  64  97 SE12G21   29.80S FOG
SWAINSBORO     CLOUDY   N/A N/A N/A SE7       29.80F
VIDALIA        CLOUDY    70  70 100 S3        29.80F
HAZLEHURST     RAIN      73  73 100 S3        29.79S
ALMA           CLOUDY    72  70  93 S10       29.80F
WAYCROSS       CLOUDY    76  74  96 S7        29.81S
JESUP          CLOUDY    73  72  94 S3        29.82S
BAXLEY         CLOUDY    73  72  94 S7        29.80S
BRUNSWICK      CLOUDY    70  66  88 S8        29.85S
SAINT SIMONS   CLOUDY    65  65 100 SE7       29.84S FOG

$$

SCZ027-028-034-036>038-045-046-048>050-GAZ119-141-232300-
...LAKE AND SUPPLEMENTAL COASTAL OBSERVATIONS...

STATION/POSITION TIME  TEMP    WIND        PRES    WAVE   SWELL
                       AIR SEA DIR/SP/G            HT/PER HT/PER/DIR
                 (UTC) (F)     (DEG/KT/KT) (MB)    (FT/S) (FT/S/D)
UPR LAKE MARION  NOT AVBL
WINYAH BAY       2200   65     110/  6     1013.0S
LAKE MURRAY      2200   61     100/ 10/ 12 1009.8F
ACE BASIN NERRS  2200   66     110/  1     1011.0S
FORT PULASKI     2200   68     150/  7/ 10 1010.6F
SAPELO ISLAND    NOT AVBL

$$

ANZ835-935-AMZ111-154-330-350-352-354-370-450-454-472-232300-
...C-MAN AND BUOY OBSERVATIONS...

STATION/POSITION TIME  TEMP    WIND        PRES    WAVE   SWELL
                       AIR SEA DIR/SP/G            HT/PER HT/PER/DIR
                 (UTC) (F)     (DEG/KT/KT) (MB)    (FT/S) (FT/S/D)
FOLLY BEACH CMAN 2200   62     140/ 12/ 13 1012.0F
BUOY 41004       2200   71 75  110/ 27/ 35 1011.4R  13/ 8   2/17
BUOY 41008       2100   68 64  160/ 10/ 12 1011.3F   6/ 8   5/110/ 8
CAPERS NEARSHORE 2100   64     110/ 14/ 17   N/A
FRIPP NEARSHORE  NOT AVBL


STATION/POSITION TIME  TEMP    WIND        PRES    WAVE   SWELL
                       AIR SEA DIR/SP/G            HT/PER HT/PER/DIR
                 (UTC) (F)     (DEG/KT/KT) (MB)    (FT/S) (FT/S/D)
5E ST. MARYS GA  2200      60                N/A     6/ 8
FRYING PAN BUOY  2200   68 67  130/ 25/ 31 1014.3R  12/ 8
BUOY 41025       2200   70     150/ 21/ 27 1018.5F   6/ 5   2/110/ 9
CAPE LOOKOUT NC  2200   65     130/ 25/ 30 1016.0F
BUOY 41002       2121   72 73  130/ 21/ 27 1019.6F   6/ 6
BUOY 41010       2200   79 78  150/ 19/ 23 1014.1S   9/10   5/130/10
ST AUGUSTINE FL  2200   67     180/ 11/ 11 1011.9F


$$



USA.gov is the U.S. government's official web portal to all federal, state and local government web resources and services.